QPF
0.24 0.20 0.16 0.08 0.04 0.02 0.02 0.01 0.01 0.00 0.00 0.00 0.00 0.00 0.00 0.00 0.00 0.00 0.00 0.00 0.00 0.00 0.00 0.00 0.00 0.00 0.00 0.00 0.00 0.00 0.00 0.00 0.00 0.00 0.00 0.00 0.00 0.00 0.00 0.01 0.01 0.02 0.03
0.19 0.14 0.10 0.04 0.02 0.01 0.01 0.01 0.00 0.00 0.00 0.00 0.00 0.00 0.00 0.00 0.00 0.00 0.00 0.00 0.00 0.00 0.00 0.00 0.00 0.00 0.00 0.00 0.00 0.00 0.00 0.00 0.00 0.00 0.00 0.00 0.00 0.00 0.00 0.01 0.03 0.05 0.06
0.16 0.10 0.06 0.03 0.01 0.00 0.00 0.00 0.00 0.00 0.00 0.00 0.00 0.00 0.00 0.00 0.00 0.00 0.00 0.00 0.00 0.00 0.00 0.00 0.00 0.00 0.00 0.00 0.00 0.00 0.00 0.00 0.00 0.00 0.00 0.00 0.00 0.00 0.00 0.01 0.02 0.04 0.08
0.08 0.05 0.03 0.02 0.01 0.00 0.00 0.01 0.00 0.00 0.00 0.00 0.00 0.00 0.00 0.00 0.00 0.00 0.00 0.00 0.00 0.00 0.00 0.00 0.00 0.00 0.00 0.00 0.00 0.00 0.00 0.00 0.00 0.00 0.00 0.00 0.00 0.00 0.00 0.00 0.00 0.01 0.03
0.02 0.01 0.01 0.01 0.00 0.00 0.00 0.01 0.01 0.01 0.01 0.00 0.00 0.00 0.00 0.00 0.00 0.00 0.00 0.00 0.00 0.00 0.00 0.00 0.00 0.00 0.00 0.00 0.00 0.00 0.00 0.00 0.00 0.00 0.00 0.00 0.00 0.00 0.00 0.00 0.00 0.00 0.00
0.00 0.00 0.00 0.00 0.00 0.00 0.00 0.01 0.01 0.01 0.00 0.00 0.00 0.00 0.00 0.00 0.00 0.00 0.00 0.00 0.00 0.00 0.00 0.00 0.00 0.00 0.00 0.00 0.00 0.00 0.00 0.00 0.00 0.00 0.00 0.00 0.00 0.00 0.00 0.00 0.00 0.00 0.00
0.00 0.00 0.00 0.00 0.00 0.00 0.00 0.01 0.01 0.00 0.00 0.00 0.00 0.00 0.00 0.00 0.00 0.00 0.00 0.00 0.00 0.00 0.00 0.00 0.00 0.00 0.00 0.00 0.00 0.00 0.00 0.00 0.00 0.00 0.00 0.00 0.00 0.00 0.00 0.00 0.00 0.00 0.00
0.00 0.00 0.00 0.00 0.00 0.00 0.00 0.01 0.01 0.01 0.00 0.00 0.00 0.00 0.00 0.00 0.00 0.00 0.00 0.00 0.00 0.00 0.00 0.00 0.00 0.00 0.00 0.00 0.00 0.00 0.00 0.00 0.00 0.00 0.00 0.00 0.00 0.00 0.00 0.00 0.00 0.00 0.00
0.00 0.00 0.00 0.00 0.00 0.00 0.00 0.00 0.00 0.00 0.00 0.00 0.00 0.00 0.00 0.00 0.00 0.00 0.00 0.00 0.00 0.00 0.00 0.00 0.00 0.00 0.00 0.00 0.00 0.00 0.00 0.00 0.00 0.00 0.00 0.00 0.00 0.00 0.00 0.00 0.00 0.00 0.00
0.00 0.00 0.00 0.00 0.00 0.00 0.00 0.00 0.00 0.00 0.00 0.00 0.00 0.00 0.00 0.00 0.00 0.00 0.00 0.00 0.00 0.00 0.00 0.00 0.00 0.00 0.00 0.00 0.00 0.00 0.00 0.00 0.00 0.00 0.00 0.00 0.00 0.00 0.00 0.00 0.00 0.00 0.00
0.00 0.00 0.00 0.00 0.00 0.00 0.00 0.00 0.00 0.00 0.00 0.00 0.00 0.00 0.00 0.00 0.00 0.00 0.00 0.00 0.00 0.00 0.00 0.00 0.00 0.00 0.00 0.00 0.00 0.00 0.00 0.00 0.00 0.00 0.00 0.00 0.00 0.00 0.00 0.00 0.00 0.00 0.00
0.00 0.00 0.00 0.00 0.00 0.00 0.00 0.00 0.00 0.00 0.00 0.00 0.00 0.00 0.00 0.00 0.00 0.00 0.00 0.00 0.00 0.00 0.00 0.00 0.00 0.00 0.00 0.00 0.00 0.00 0.00 0.00 0.00 0.00 0.00 0.00 0.00 0.00 0.00 0.00 0.00 0.00 0.00
0.00 0.00 0.00 0.00 0.00 0.00 0.00 0.00 0.00 0.00 0.00 0.00 0.00 0.00 0.00 0.00 0.00 0.00 0.00 0.00 0.00 0.00 0.00 0.00 0.00 0.00 0.00 0.00 0.00 0.00 0.00 0.00 0.00 0.00 0.00 0.00 0.00 0.00 0.00 0.00 0.00 0.00 0.00
0.00 0.00 0.00 0.00 0.00 0.00 0.00 0.00 0.00 0.00 0.00 0.00 0.00 0.00 0.00 0.00 0.00 0.00 0.00 0.00 0.00 0.00 0.00 0.00 0.00 0.00 0.00 0.00 0.00 0.00 0.00 0.00 0.00 0.00 0.00 0.00 0.00 0.00 0.00 0.00 0.00 0.00 0.00
0.00 0.00 0.00 0.00 0.00 0.00 0.00 0.00 0.00 0.00 0.00 0.00 0.00 0.00 0.00 0.00 0.00 0.00 0.00 0.00 0.00 0.00 0.00 0.00 0.00 0.00 0.00 0.00 0.00 0.00 0.00 0.00 0.00 0.00 0.00 0.00 0.00 0.00 0.00 0.00 0.00 0.00 0.00
0.00 0.00 0.00 0.00 0.00 0.00 0.00 0.00 0.00 0.00 0.00 0.00 0.00 0.00 0.00 0.00 0.00 0.00 0.00 0.00 0.00 0.00 0.00 0.00 0.00 0.00 0.00 0.00 0.00 0.00 0.00 0.00 0.00 0.00 0.00 0.00 0.00 0.00 0.00 0.00 0.00 0.00 0.00
0.00 0.00 0.00 0.00 0.00 0.00 0.00 0.00 0.00 0.00 0.00 0.00 0.00 0.00 0.00 0.00 0.00 0.00 0.00 0.00 0.00 0.00 0.00 0.00 0.00 0.00 0.00 0.00 0.00 0.00 0.00 0.00 0.00 0.00 0.00 0.00 0.00 0.00 0.00 0.00 0.00 0.00 0.00
0.00 0.00 0.00 0.00 0.00 0.00 0.00 0.00 0.00 0.00 0.00 0.00 0.00 0.00 0.00 0.00 0.00 0.00 0.00 0.00 0.00 0.00 0.00 0.00 0.00 0.00 0.00 0.00 0.00 0.00 0.00 0.00 0.00 0.00 0.00 0.00 0.00 0.00 0.00 0.00 0.00 0.00 0.00
0.00 0.00 0.00 0.00 0.00 0.00 0.00 0.00 0.00 0.00 0.00 0.00 0.00 0.00 0.00 0.00 0.00 0.00 0.00 0.00 0.00 0.00 0.00 0.00 0.00 0.00 0.00 0.00 0.00 0.00 0.00 0.00 0.00 0.00 0.00 0.00 0.00 0.00 0.00 0.00 0.00 0.00 0.00
0.01 0.00 0.00 0.00 0.00 0.00 0.00 0.00 0.01 0.01 0.01 0.01 0.01 0.01 0.00 0.00 0.00 0.00 0.00 0.00 0.00 0.00 0.00 0.00 0.00 0.00 0.00 0.00 0.00 0.00 0.00 0.00 0.00 0.00 0.00 0.00 0.00 0.00 0.00 0.00 0.00 0.00 0.00
0.01 0.01 0.00 0.00 0.01 0.01 0.01 0.02 0.02 0.02 0.01 0.01 0.01 0.01 0.01 0.02 0.02 0.02 0.01 0.01 0.01 0.00 0.00 0.00 0.00 0.00 0.00 0.00 0.00 0.00 0.00 0.00 0.00 0.00 0.00 0.00 0.00 0.00 0.00 0.00 0.00 0.00 0.00
0.01 0.01 0.01 0.02 0.02 0.02 0.02 0.02 0.02 0.02 0.03 0.03 0.04 0.04 0.05 0.04 0.04 0.03 0.02 0.01 0.01 0.01 0.00 0.01 0.00 0.00 0.00 0.00 0.00 0.00 0.00 0.00 0.00 0.00 0.00 0.00 0.00 0.00 0.00 0.00 0.00 0.00 0.00
0.01 0.02 0.02 0.02 0.03 0.03 0.03 0.03 0.03 0.04 0.05 0.07 0.07 0.06 0.05 0.05 0.04 0.03 0.02 0.02 0.01 0.01 0.01 0.01 0.01 0.01 0.01 0.00 0.00 0.00 0.00 0.00 0.00 0.00 0.00 0.00 0.00 0.00 0.00 0.00 0.00 0.00 0.00
0.00 0.01 0.01 0.02 0.02 0.02 0.02 0.03 0.03 0.04 0.05 0.06 0.06 0.05 0.04 0.03 0.04 0.03 0.03 0.03 0.02 0.02 0.02 0.02 0.02 0.01 0.01 0.01 0.01 0.01 0.00 0.00 0.00 0.00 0.00 0.00 0.00 0.00 0.00 0.00 0.00 0.00 0.00
0.00 0.00 0.00 0.01 0.01 0.01 0.01 0.01 0.02 0.02 0.04 0.05 0.05 0.05 0.05 0.05 0.05 0.04 0.03 0.04 0.03 0.04 0.04 0.03 0.03 0.02 0.02 0.02 0.02 0.02 0.01 0.01 0.00 0.00 0.00 0.00 0.00 0.00 0.00 0.00 0.00 0.00 0.00
0.00 0.00 0.00 0.00 0.00 0.00 0.01 0.01 0.02 0.03 0.04 0.05 0.06 0.06 0.06 0.06 0.05 0.04 0.03 0.04 0.04 0.04 0.05 0.05 0.05 0.05 0.05 0.05 0.04 0.02 0.02 0.01 0.00 0.00 0.00 0.00 0.00 0.00 0.00 0.00 0.00 0.01 0.01
MSLP
1015.63 1015.72 1015.72 1015.61 1015.45 1015.27 1015.13 1015.09 1015.18 1015.41 1015.75 1016.14 1016.55 1016.90 1017.16 1017.32 1017.38 1017.38 1017.35 1017.35 1017.40 1017.51 1017.68 1017.88 1018.09 1018.27 1018.40 1018.48 1018.49 1018.46 1018.39 1018.31 1018.22 1018.12 1017.99 1017.81 1017.58 1017.29 1016.95 1016.59 1016.24 1015.94 1015.73
1015.75 1015.91 1015.93 1015.83 1015.63 1015.40 1015.21 1015.13 1015.20 1015.44 1015.80 1016.24 1016.69 1017.07 1017.33 1017.47 1017.48 1017.42 1017.34 1017.29 1017.31 1017.42 1017.63 1017.88 1018.15 1018.38 1018.56 1018.66 1018.68 1018.65 1018.58 1018.50 1018.43 1018.35 1018.27 1018.14 1017.96 1017.70 1017.37 1016.98 1016.57 1016.18 1015.85
1015.60 1015.81 1015.88 1015.79 1015.59 1015.34 1015.12 1015.02 1015.09 1015.34 1015.75 1016.24 1016.74 1017.16 1017.46 1017.60 1017.59 1017.50 1017.37 1017.28 1017.28 1017.38 1017.59 1017.86 1018.16 1018.43 1018.63 1018.74 1018.77 1018.74 1018.67 1018.61 1018.57 1018.55 1018.52 1018.48 1018.37 1018.17 1017.88 1017.49 1017.05 1016.58 1016.15
1015.21 1015.47 1015.58 1015.52 1015.33 1015.08 1014.85 1014.74 1014.81 1015.09 1015.53 1016.08 1016.64 1017.12 1017.47 1017.65 1017.66 1017.56 1017.43 1017.32 1017.29 1017.38 1017.58 1017.86 1018.16 1018.43 1018.64 1018.75 1018.78 1018.75 1018.69 1018.65 1018.65 1018.68 1018.73 1018.77 1018.75 1018.64 1018.40 1018.05 1017.60 1017.10 1016.59
1014.67 1014.95 1015.10 1015.08 1014.91 1014.66 1014.43 1014.32 1014.39 1014.68 1015.16 1015.75 1016.37 1016.92 1017.34 1017.57 1017.64 1017.58 1017.46 1017.36 1017.33 1017.41 1017.60 1017.87 1018.16 1018.42 1018.62 1018.72 1018.74 1018.71 1018.65 1018.63 1018.65 1018.73 1018.85 1018.96 1019.03 1019.00 1018.85 1018.55 1018.13 1017.62 1017.07
1014.03 1014.34 1014.52 1014.54 1014.40 1014.17 1013.95 1013.83 1013.90 1014.19 1014.67 1015.29 1015.96 1016.57 1017.06 1017.37 1017.50 1017.50 1017.43 1017.36 1017.35 1017.44 1017.62 1017.87 1018.14 1018.39 1018.57 1018.65 1018.66 1018.61 1018.56 1018.54 1018.58 1018.69 1018.85 1019.02 1019.16 1019.21 1019.13 1018.91 1018.54 1018.06 1017.51
1013.34 1013.67 1013.90 1013.97 1013.88 1013.68 1013.48 1013.36 1013.42 1013.69 1014.16 1014.78 1015.47 1016.12 1016.66 1017.04 1017.25 1017.32 1017.31 1017.29 1017.31 1017.40 1017.58 1017.82 1018.08 1018.30 1018.46 1018.53 1018.52 1018.46 1018.40 1018.37 1018.41 1018.53 1018.71 1018.92 1019.10 1019.21 1019.21 1019.06 1018.76 1018.34 1017.84
1012.62 1013.00 1013.29 1013.43 1013.41 1013.27 1013.09 1012.98 1013.03 1013.27 1013.71 1014.31 1014.98 1015.64 1016.21 1016.64 1016.90 1017.04 1017.08 1017.11 1017.16 1017.27 1017.45 1017.68 1017.92 1018.12 1018.27 1018.32 1018.31 1018.24 1018.17 1018.13 1018.16 1018.27 1018.44 1018.66 1018.86 1019.01 1019.06 1018.98 1018.77 1018.44 1018.01
1011.88 1012.32 1012.70 1012.94 1013.01 1012.94 1012.82 1012.74 1012.78 1013.00 1013.40 1013.95 1014.58 1015.21 1015.77 1016.21 1016.51 1016.68 1016.77 1016.83 1016.90 1017.02 1017.19 1017.41 1017.64 1017.83 1017.97 1018.02 1018.00 1017.94 1017.86 1017.81 1017.83 1017.91 1018.07 1018.27 1018.47 1018.64 1018.73 1018.71 1018.58 1018.34 1018.00
1011.12 1011.65 1012.13 1012.48 1012.66 1012.70 1012.66 1012.63 1012.68 1012.88 1013.23 1013.72 1014.29 1014.87 1015.40 1015.82 1016.11 1016.29 1016.39 1016.46 1016.54 1016.66 1016.83 1017.03 1017.24 1017.43 1017.56 1017.62 1017.61 1017.56 1017.49 1017.44 1017.44 1017.51 1017.63 1017.80 1017.99 1018.15 1018.26 1018.29 1018.22 1018.07 1017.84
1010.39 1010.99 1011.57 1012.03 1012.33 1012.48 1012.53 1012.57 1012.66 1012.86 1013.18 1013.62 1014.12 1014.63 1015.09 1015.46 1015.73 1015.89 1015.98 1016.05 1016.12 1016.22 1016.37 1016.56 1016.75 1016.93 1017.06 1017.14 1017.15 1017.12 1017.08 1017.04 1017.04 1017.09 1017.19 1017.33 1017.48 1017.63 1017.73 1017.78 1017.76 1017.68 1017.54
1009.73 1010.38 1011.02 1011.56 1011.95 1012.20 1012.35 1012.47 1012.61 1012.82 1013.13 1013.53 1013.97 1014.42 1014.82 1015.14 1015.36 1015.49 1015.57 1015.61 1015.66 1015.75 1015.88 1016.04 1016.22 1016.39 1016.53 1016.62 1016.66 1016.66 1016.65 1016.64 1016.65 1016.69 1016.77 1016.88 1017.00 1017.12 1017.20 1017.25 1017.25 1017.21 1017.13
1009.21 1009.85 1010.49 1011.05 1011.49 1011.81 1012.03 1012.22 1012.41 1012.66 1012.98 1013.35 1013.76 1014.16 1014.51 1014.79 1014.98 1015.09 1015.14 1015.17 1015.21 1015.28 1015.39 1015.53 1015.69 1015.85 1015.99 1016.10 1016.17 1016.21 1016.23 1016.25 1016.28 1016.34 1016.41 1016.49 1016.58 1016.65 1016.70 1016.73 1016.72 1016.70 1016.65
1008.89 1009.44 1010.00 1010.51 1010.93 1011.25 1011.51 1011.74 1011.98 1012.27 1012.60 1012.98 1013.38 1013.76 1014.09 1014.35 1014.53 1014.64 1014.70 1014.73 1014.77 1014.84 1014.93 1015.06 1015.20 1015.35 1015.49 1015.60 1015.69 1015.76 1015.82 1015.87 1015.93 1016.00 1016.07 1016.14 1016.19 1016.22 1016.23 1016.22 1016.18 1016.14 1016.11
1008.81 1009.19 1009.59 1009.96 1010.29 1010.56 1010.80 1011.03 1011.30 1011.61 1011.96 1012.36 1012.76 1013.15 1013.50 1013.77 1013.98 1014.12 1014.21 1014.28 1014.34 1014.41 1014.51 1014.63 1014.75 1014.88 1015.01 1015.12 1015.22 1015.31 1015.39 1015.48 1015.57 1015.65 1015.73 1015.78 1015.81 1015.80 1015.76 1015.70 1015.62 1015.55 1015.50
1008.96 1009.10 1009.28 1009.46 1009.63 1009.78 1009.95 1010.15 1010.41 1010.72 1011.09 1011.51 1011.93 1012.35 1012.73 1013.05 1013.31 1013.51 1013.66 1013.79 1013.89 1013.99 1014.10 1014.22 1014.33 1014.44 1014.55 1014.64 1014.74 1014.83 1014.93 1015.03 1015.14 1015.24 1015.32 1015.37 1015.38 1015.34 1015.27 1015.16 1015.04 1014.93 1014.85
1009.29 1009.19 1009.11 1009.06 1009.03 1009.04 1009.10 1009.22 1009.43 1009.72 1010.09 1010.51 1010.97 1011.42 1011.85 1012.23 1012.56 1012.83 1013.06 1013.25 1013.41 1013.56 1013.68 1013.79 1013.89 1013.98 1014.05 1014.12 1014.19 1014.27 1014.37 1014.48 1014.60 1014.71 1014.80 1014.86 1014.86 1014.81 1014.71 1014.57 1014.41 1014.27 1014.17
1009.75 1009.42 1009.11 1008.84 1008.61 1008.45 1008.38 1008.40 1008.54 1008.79 1009.13 1009.54 1010.00 1010.48 1010.95 1011.38 1011.78 1012.13 1012.43 1012.68 1012.90 1013.07 1013.21 1013.32 1013.40 1013.45 1013.49 1013.52 1013.56 1013.62 1013.70 1013.81 1013.93 1014.05 1014.16 1014.22 1014.24 1014.19 1014.08 1013.92 1013.75 1013.59 1013.47
1010.26 1009.76 1009.27 1008.83 1008.44 1008.13 1007.94 1007.86 1007.91 1008.10 1008.39 1008.77 1009.21 1009.69 1010.17 1010.64 1011.07 1011.46 1011.81 1012.10 1012.35 1012.54 1012.68 1012.77 1012.81 1012.83 1012.82 1012.81 1012.81 1012.84 1012.91 1013.01 1013.14 1013.27 1013.39 1013.48 1013.51 1013.48 1013.39 1013.25 1013.08 1012.92 1012.80
1010.76 1010.18 1009.61 1009.06 1008.57 1008.16 1007.87 1007.70 1007.68 1007.78 1008.01 1008.34 1008.73 1009.17 1009.63 1010.09 1010.52 1010.91 1011.26 1011.55 1011.79 1011.96 1012.07 1012.13 1012.13 1012.10 1012.05 1012.00 1011.97 1011.98 1012.03 1012.13 1012.26 1012.41 1012.56 1012.67 1012.73 1012.73 1012.67 1012.55 1012.41 1012.28 1012.17
1011.23 1010.67 1010.09 1009.52 1009.00 1008.55 1008.20 1007.97 1007.87 1007.91 1008.06 1008.31 1008.64 1009.01 1009.41 1009.81 1010.18 1010.53 1010.82 1011.06 1011.24 1011.36 1011.41 1011.41 1011.36 1011.28 1011.19 1011.11 1011.06 1011.06 1011.11 1011.22 1011.36 1011.53 1011.70 1011.84 1011.93 1011.97 1011.95 1011.87 1011.77 1011.66 1011.57
1011.70 1011.22 1010.71 1010.18 1009.68 1009.23 1008.87 1008.60 1008.46 1008.43 1008.51 1008.68 1008.92 1009.20 1009.50 1009.80 1010.08 1010.32 1010.51 1010.64 1010.72 1010.74 1010.71 1010.63 1010.52 1010.39 1010.27 1010.18 1010.13 1010.13 1010.20 1010.32 1010.49 1010.68 1010.87 1011.04 1011.16 1011.23 1011.25 1011.21 1011.14 1011.06 1010.99
1012.17 1011.81 1011.40 1010.95 1010.51 1010.10 1009.75 1009.49 1009.31 1009.23 1009.25 1009.33 1009.48 1009.65 1009.84 1010.01 1010.15 1010.25 1010.30 1010.29 1010.23 1010.12 1009.98 1009.81 1009.63 1009.46 1009.33 1009.23 1009.20 1009.23 1009.33 1009.48 1009.68 1009.89 1010.11 1010.29 1010.44 1010.53 1010.56 1010.55 1010.50 1010.44 1010.39
1012.65 1012.41 1012.10 1011.74 1011.37 1011.02 1010.69 1010.44 1010.25 1010.14 1010.10 1010.12 1010.17 1010.24 1010.31 1010.34 1010.33 1010.27 1010.15 1009.97 1009.75 1009.50 1009.23 1008.96 1008.72 1008.52 1008.38 1008.30 1008.30 1008.38 1008.52 1008.72 1008.94 1009.18 1009.41 1009.60 1009.75 1009.84 1009.87 1009.86 1009.82 1009.77 1009.72
1013.14 1012.97 1012.73 1012.44 1012.13 1011.81 1011.52 1011.27 1011.08 1010.96 1010.88 1010.85 1010.84 1010.82 1010.77 1010.68 1010.51 1010.29 1009.99 1009.64 1009.25 1008.85 1008.46 1008.10 1007.79 1007.57 1007.43 1007.39 1007.44 1007.57 1007.77 1008.01 1008.27 1008.52 1008.75 1008.93 1009.06 1009.13 1009.14 1009.11 1009.06 1009.00 1008.94
1013.57 1013.42 1013.21 1012.94 1012.65 1012.35 1012.08 1011.84 1011.66 1011.53 1011.44 1011.38 1011.32 1011.24 1011.11 1010.90 1010.61 1010.23 1009.78 1009.27 1008.73 1008.18 1007.67 1007.22 1006.87 1006.63 1006.50 1006.50 1006.60 1006.78 1007.04 1007.32 1007.60 1007.86 1008.08 1008.23 1008.32 1008.35 1008.33 1008.26 1008.18 1008.10 1008.02
Thickness
5729 5733 5736 5738 5739 5738 5737 5736 5735 5735 5734 5730 5727 5724 5721 5720 5719 5718 5717 5715 5714 5712 5710 5707 5705 5704 5702 5701 5701 5700 5699 5698 5700 5699 5698 5703 5706 5707 5709 5711 5711 5712 5712
5726 5732 5735 5737 5737 5736 5736 5735 5735 5734 5733 5731 5728 5726 5723 5720 5718 5716 5714 5713 5712 5710 5708 5705 5702 5701 5699 5697 5696 5695 5693 5692 5693 5691 5688 5686 5691 5699 5704 5705 5706 5707 5708
5729 5733 5734 5735 5737 5736 5736 5737 5736 5735 5733 5732 5728 5725 5721 5718 5714 5712 5711 5711 5710 5708 5706 5703 5700 5698 5696 5693 5692 5691 5688 5685 5686 5687 5683 5678 5676 5682 5692 5696 5699 5700 5701
5735 5735 5737 5737 5739 5740 5741 5740 5737 5735 5733 5731 5728 5723 5717 5713 5713 5712 5710 5710 5708 5706 5703 5701 5698 5695 5693 5690 5689 5687 5685 5682 5680 5680 5680 5679 5676 5674 5676 5684 5688 5691 5694
5741 5740 5742 5742 5744 5744 5743 5742 5738 5735 5734 5732 5728 5724 5719 5715 5713 5711 5709 5708 5706 5704 5701 5698 5695 5692 5690 5687 5685 5683 5681 5679 5676 5674 5674 5674 5673 5672 5669 5669 5675 5681 5685
5748 5747 5748 5747 5746 5747 5745 5743 5738 5736 5734 5732 5729 5724 5719 5715 5712 5709 5707 5705 5703 5701 5699 5696 5693 5690 5687 5685 5682 5680 5678 5675 5673 5671 5669 5667 5665 5664 5663 5661 5663 5667 5675
5751 5749 5749 5748 5748 5747 5746 5744 5740 5736 5735 5732 5729 5725 5721 5716 5712 5709 5706 5703 5700 5698 5697 5695 5691 5688 5685 5683 5680 5676 5674 5671 5668 5666 5664 5662 5660 5659 5657 5655 5655 5657 5663
5755 5755 5755 5754 5753 5752 5749 5746 5742 5738 5735 5733 5729 5726 5722 5718 5714 5711 5707 5703 5700 5698 5696 5693 5689 5686 5683 5680 5677 5673 5670 5667 5664 5662 5659 5656 5655 5654 5652 5650 5648 5647 5649
5760 5759 5759 5758 5757 5755 5753 5750 5744 5740 5737 5734 5730 5725 5722 5718 5714 5711 5708 5704 5701 5698 5695 5691 5687 5684 5681 5677 5673 5669 5666 5663 5660 5657 5654 5651 5650 5648 5646 5644 5642 5639 5637
5763 5763 5762 5761 5761 5759 5756 5752 5748 5743 5739 5734 5730 5726 5722 5719 5715 5710 5706 5702 5699 5696 5693 5689 5685 5682 5678 5675 5670 5666 5663 5659 5656 5652 5649 5646 5644 5641 5639 5636 5634 5632 5630
5766 5766 5765 5765 5762 5759 5755 5750 5746 5742 5737 5733 5729 5726 5721 5718 5713 5709 5705 5701 5697 5694 5690 5686 5682 5679 5675 5672 5667 5663 5659 5655 5651 5648 5644 5641 5639 5635 5632 5629 5626 5624 5622
5771 5769 5767 5763 5759 5755 5753 5749 5745 5741 5737 5734 5729 5725 5721 5716 5711 5707 5703 5700 5695 5692 5688 5684 5680 5676 5672 5668 5664 5660 5656 5651 5647 5643 5639 5635 5633 5628 5625 5622 5619 5616 5614
5769 5765 5762 5759 5757 5755 5752 5748 5744 5741 5738 5733 5728 5723 5718 5714 5709 5706 5702 5698 5693 5689 5685 5681 5677 5673 5669 5665 5661 5657 5652 5647 5643 5639 5634 5630 5626 5621 5618 5615 5612 5609 5609
5767 5762 5758 5757 5756 5754 5751 5747 5744 5741 5737 5732 5726 5721 5717 5713 5709 5705 5700 5695 5691 5686 5682 5678 5674 5670 5666 5662 5657 5653 5648 5643 5638 5634 5630 5625 5620 5616 5612 5608 5605 5603 5600
5763 5761 5758 5755 5753 5751 5749 5747 5744 5740 5737 5731 5725 5721 5717 5712 5707 5702 5698 5693 5688 5684 5679 5675 5671 5667 5663 5658 5653 5648 5643 5638 5633 5628 5624 5620 5615 5612 5608 5604 5600 5597 5594
5761 5761 5759 5755 5753 5751 5749 5746 5742 5740 5735 5730 5725 5721 5715 5709 5704 5700 5695 5690 5685 5681 5676 5671 5667 5662 5659 5656 5650 5644 5638 5632 5626 5621 5617 5613 5609 5606 5603 5600 5597 5593 5589
5758 5758 5757 5755 5754 5752 5750 5745 5743 5739 5733 5728 5724 5719 5713 5707 5702 5698 5692 5686 5681 5676 5671 5667 5662 5658 5654 5650 5645 5640 5633 5626 5620 5615 5610 5607 5604 5600 5596 5593 5591 5589 5587
5751 5751 5753 5753 5753 5751 5748 5745 5740 5734 5729 5724 5719 5715 5709 5704 5699 5693 5687 5682 5677 5671 5666 5662 5657 5653 5649 5644 5639 5634 5627 5620 5615 5610 5605 5600 5596 5593 5590 5586 5584 5582 5580
5743 5745 5748 5748 5747 5745 5744 5739 5733 5728 5723 5719 5715 5711 5706 5700 5694 5688 5683 5678 5672 5667 5662 5657 5652 5647 5643 5639 5634 5628 5620 5614 5609 5605 5600 5595 5591 5588 5584 5580 5577 5575 5574
5733 5734 5736 5736 5734 5734 5733 5728 5724 5720 5716 5715 5712 5708 5702 5696 5689 5684 5679 5673 5667 5662 5657 5652 5647 5642 5638 5634 5628 5622 5614 5608 5603 5598 5594 5591 5586 5583 5579 5574 5571 5568 5569
5718 5719 5719 5718 5717 5719 5719 5713 5710 5708 5709 5708 5704 5698 5693 5687 5682 5676 5671 5666 5660 5655 5650 5645 5641 5636 5632 5628 5623 5616 5608 5603 5598 5593 5588 5585 5581 5577 5574 5570 5566 5565 5564
5704 5704 5702 5701 5702 5704 5703 5699 5696 5697 5697 5694 5689 5685 5681 5677 5672 5666 5661 5656 5651 5645 5641 5636 5633 5630 5626 5622 5618 5612 5605 5599 5593 5589 5585 5580 5576 5572 5568 5565 5562 5559 5556
5689 5689 5687 5687 5686 5686 5686 5682 5681 5682 5680 5676 5672 5669 5666 5662 5658 5654 5649 5645 5640 5635 5632 5627 5625 5623 5619 5615 5611 5606 5600 5594 5588 5584 5580 5574 5569 5565 5561 5559 5556 5552 5548
5676 5675 5674 5671 5670 5669 5669 5667 5666 5665 5662 5658 5654 5652 5649 5645 5642 5639 5636 5632 5628 5624 5621 5618 5616 5614 5611 5607 5604 5599 5594 5588 5581 5577 5572 5567 5562 5558 5555 5553 5550 5547 5544
5662 5661 5658 5656 5654 5654 5653 5652 5651 5649 5644 5641 5637 5635 5632 5629 5627 5625 5623 5620 5619 5615 5613 5611 5608 5605 5603 5602 5597 5591 5586 5581 5576 5569 5562 5557 5553 5550 5548 5547 5545 5543 5541
5648 5646 5644 5642 5640 5639 5637 5636 5635 5633 5628 5624 5621 5618 5616 5613 5611 5610 5611 5610 5607 5607 5603 5601 5598 5598 5596 5594 5589 5583 5578 5574 5567 5558 5554 5551 5548 5546 5545 5544 5542 5541 5539